K1TTT Weather Reports


time (UTC)temp
C
wind
direction
speed
KPH
gust
KPH
rain 1hr
cm
rain 24hr
cm
rain mn
cm
humidity
%
barometer
mb
20260506222036 13 208 9.7 29.0 0.00 0.97 0.97 97 1003.1
20260506221626 13 218 8.0 30.6 0.00 0.97 0.97 97 1003.1
20260506221131 13 279 14.5 30.6 0.00 0.97 0.97 97 1003.2
20260506220545 13 195 6.4 17.7 0.03 0.97 0.97 97 1003.1
20260506220043 13 189 9.7 20.9 0.03 0.97 0.97 97 1003.2
20260506215536 13 244 8.0 17.7 0.03 0.97 0.97 97 1003.1
20260506215032 13 208 6.4 20.9 0.03 0.97 0.97 97 1003.3
20260506214622 13 179 11.3 20.9 0.03 0.97 0.97 96 1003.2
20260506214036 13 195 11.3 25.7 0.03 0.97 0.97 96 1003.3
20260506213533 13 198 12.9 25.7 0.03 0.97 0.97 96 1003.3
20260506213032 13 179 8.0 33.8 0.03 0.97 0.97 96 1003.2
20260506212525 13 145 14.5 33.8 0.03 0.97 0.97 96 1003.2
20260506212130 13 213 11.3 20.9 0.03 0.97 0.97 96 1003.3
20260506211552 13 132 11.3 19.3 0.03 0.97 0.97 96 1003.2
20260506211049 13 207 8.0 24.1 0.05 0.97 0.97 96 1003.3
20260506210545 13 185 11.3 22.5 0.03 0.94 0.94 96 1003.2
20260506210136 13 180 8.0 29.0 0.03 0.94 0.94 96 1003.3
20260506205616 13 181 9.7 29.0 0.03 0.94 0.94 96 1003.5
20260506205030 13 210 3.2 17.7 0.03 0.94 0.94 96 1003.4
20260506204526 13 187 4.8 24.1 0.05 0.94 0.94 96 1003.5
20260506204136 13 214 12.9 24.1 0.05 0.94 0.94 96 1003.4
20260506203621 13 43 6.4 25.7 0.08 0.94 0.94 96 1003.5
20260506203110 13 185 8.0 20.9 0.10 0.94 0.94 96 1003.4
20260506202549 13 197 8.0 22.5 0.15 0.94 0.94 96 1003.5
20260506202118 13 197 9.7 27.4 0.18 0.94 0.94 96 1003.6
20260506201533 13 195 8.0 27.4 0.23 0.94 0.94 96 1003.7
20260506201028 13 214 6.4 19.3 0.25 0.91 0.91 96 1003.7
20260506200552 13 210 8.0 17.7 0.28 0.91 0.91 96 1003.7
20260506200026 13 209 6.4 17.7 0.30 0.91 0.91 96 1003.7
20260506195614 13 156 6.4 25.7 0.30 0.91 0.91 96 1003.9
20260506195027 13 121 11.3 25.7 0.33 0.91 0.91 96 1003.9
20260506194547 13 210 4.8 19.3 0.30 0.89 0.89 96 1004.0
20260506194050 13 186 9.7 19.3 0.33 0.89 0.89 96 1004.1
20260506193558 13 183 8.0 20.9 0.30 0.86 0.86 96 1004.2
20260506193129 13 207 8.0 20.9 0.28 0.81 0.84 96 1004.1
20260506192540 13 201 6.4 20.9 0.28 0.79 0.79 96 1004.2
20260506192038 13 205 9.7 19.3 0.28 0.76 0.76 95 1004.2
20260506191626 13 158 6.4 32.2 0.25 0.71 0.71 95 1004.2
20260506191038 13 188 12.9 32.2 0.23 0.66 0.66 95 1004.3
20260506190533 13 201 11.3 24.1 0.20 0.64 0.64 95 1004.1
20260506190031 13 165 11.3 32.2 0.20 0.61 0.61 96 1004.4
20260506185553 13 139 6.4 17.7 0.18 0.58 0.58 96 1004.3
20260506185029 13 156 9.7 22.5 0.23 0.58 0.58 95 1004.3
20260506184525 13 151 14.5 20.9 0.30 0.58 0.58 95 1004.4
20260506184114 13 146 9.7 22.5 0.28 0.56 0.56 95 1004.3
20260506183619 13 153 12.9 24.1 0.28 0.56 0.56 95 1004.3
20260506183033 13 190 12.9 24.1 0.25 0.53 0.53 95 1004.4
20260506182526 13 134 8.0 29.0 0.23 0.51 0.51 95 1004.6
20260506182051 13 189 14.5 29.0 0.23 0.48 0.48 95 1004.6
20260506181554 13 159 8.0 29.0 0.20 0.46 0.46 95 1004.6
20260506181102 13 177 8.0 29.0 0.20 0.43 0.43 95 1004.7
20260506180537 13 168 8.0 19.3 0.23 0.43 0.43 95 1004.8
20260506180035 13 175 8.0 17.7 0.23 0.41 0.41 95 1004.8
20260506175603 13 133 9.7 25.7 0.25 0.41 0.41 95 1004.9
20260506175034 13 202 8.0 25.7 0.20 0.33 0.33 95 1004.9
20260506174532 13 169 11.3 17.7 0.18 0.28 0.28 95 1005.0
20260506174029 13 157 9.7 22.5 0.18 0.28 0.28 95 1005.0
20260506173639 13 200 6.4 22.5 0.20 0.28 0.28 95 1005.0
20260506173108 13 176 12.9 19.3 0.23 0.28 0.28 95 1005.2
20260506172548 13 191 8.0 17.7 0.20 0.25 0.25 95 1005.1
20260506172113 13 172 9.7 25.7 0.23 0.25 0.25 95 1005.3
20260506171528 13 160 9.7 17.7 0.20 0.23 0.25 95 1005.4
20260506171051 13 131 12.9 17.7 0.23 0.23 0.23 94 1005.5
20260506170527 13 154 9.7 17.7 0.20 0.20 0.20 94 1005.7
20260506170035 13 153 8.0 17.7 0.18 0.18 0.18 94 1005.9
20260506165603 13 133 8.0 16.1 0.15 0.15 0.15 94 1005.8
20260506165131 13 187 8.0 17.7 0.13 0.13 0.13 93 1005.9
20260506164551 13 162 6.4 17.7 0.10 0.10 0.10 93 1005.8
20260506164042 13 150 4.8 17.7 0.10 0.10 0.10 92 1005.9
20260506163538 13 184 9.7 20.9 0.08 0.08 0.08 92 1005.9
20260506163044 13 181 11.3 20.9 0.05 0.05 0.05 91 1005.9
20260506162612 13 175 6.4 22.5 0.05 0.05 0.05 91 1005.9
20260506162059 13 183 8.0 17.7 0.03 0.03 0.03 90 1006.0
20260506161535 14 198 4.8 14.5 0.03 0.03 0.03 90 1006.0
20260506161105 14 179 8.0 16.1 0.00 0.00 0.00 89 1006.1
20260506160614 14 178 9.7 16.1 0.00 0.00 0.00 88 1006.0
20260506160059 14 168 6.4 16.1 0.00 0.00 0.00 87 1006.1
20260506155529 14 155 8.0 17.7 0.00 0.00 0.00 86 1006.0
20260506155051 15 172 4.8 16.1 0.00 0.00 0.00 86 1006.1
20260506154525 15 195 9.7 17.7 0.00 0.00 0.00 84 1006.0
20260506154049 15 179 6.4 22.5 0.00 0.00 0.00 83 1006.1
20260506153526 15 196 11.3 27.4 0.00 0.00 0.00 82 1006.3
20260506153146 15 184 8.0 27.4 0.00 0.00 0.00 82 1006.2
20260506152607 15 174 9.7 19.3 0.00 0.00 0.00 81 1006.2
20260506152041 15 154 12.9 22.5 0.00 0.00 0.00 81 1006.4
20260506151630 15 209 14.5 29.0 0.00 0.00 0.00 81 1006.5
20260506151044 15 146 8.0 29.0 0.00 0.00 0.00 81 1006.5
20260506150654 15 199 9.7 19.3 0.00 0.00 0.00 81 1006.6
20260506150049 15 132 8.0 22.5 0.00 0.00 0.00 81 1006.8
20260506145551 15 207 9.7 25.7 0.00 0.00 0.00 81 1006.7
20260506145135 15 248 11.3 25.7 0.00 0.00 0.00 80 1006.9
20260506144556 15 204 11.3 22.5 0.00 0.00 0.00 80 1006.6
20260506144031 15 210 8.0 29.0 0.00 0.00 0.00 81 1006.5
20260506143528 15 206 12.9 29.0 0.00 0.00 0.00 80 1006.8
20260506143058 15 223 11.3 25.7 0.00 0.00 0.00 81 1006.8
20260506142531 15 170 9.7 29.0 0.00 0.00 0.00 81 1006.9
20260506142059 15 220 14.5 29.0 0.00 0.00 0.00 81 1006.9
20260506141532 15 164 14.5 46.7 0.00 0.00 0.00 81 1006.8
20260506141054 15 177 19.3 33.8 0.00 0.00 0.00 81 1006.9
20260506140642 15 203 14.5 33.8 0.00 0.00 0.00 81 1006.6
20260506140131 15 172 14.5 37.0 0.00 0.00 0.00 81 1006.4
20260506135543 15 187 14.5 37.0 0.00 0.00 0.00 82 1006.7
20260506135151 15 205 14.5 32.2 0.00 0.00 0.00 82 1006.8
20260506134543 15 166 14.5 35.4 0.00 0.00 0.00 82 1006.6
20260506134039 15 243 17.7 35.4 0.00 0.00 0.00 82 1006.6
20260506133632 15 194 12.9 27.4 0.00 0.00 0.00 83 1006.4
20260506133054 15 247 16.1 30.6 0.00 0.00 0.00 83 1006.3
20260506132529 15 158 14.5 30.6 0.00 0.00 0.00 83 1006.4
20260506132053 15 204 9.7 32.2 0.00 0.00 0.00 83 1006.5
20260506131529 15 185 12.9 32.2 0.00 0.00 0.00 83 1006.4
20260506131114 15 175 6.4 32.2 0.00 0.00 0.00 83 1006.2
20260506130527 15 204 17.7 32.2 0.00 0.00 0.00 83 1006.2
20260506130120 15 179 14.5 33.8 0.00 0.00 0.00 84 1006.5
20260506125605 15 232 14.5 33.8 0.00 0.00 0.00 84 1006.4
20260506125132 15 219 12.9 27.4 0.00 0.00 0.00 84 1006.6
20260506124552 15 174 14.5 27.4 0.00 0.00 0.00 84 1006.7
20260506124055 15 219 9.7 27.4 0.00 0.00 0.00 84 1007.0
20260506123530 14 216 12.9 22.5 0.00 0.00 0.00 84 1006.8
20260506123101 14 202 11.3 25.7 0.00 0.00 0.00 84 1006.8
20260506122534 14 212 14.5 25.7 0.00 0.00 0.00 84 1007.0
20260506122030 14 203 12.9 24.1 0.00 0.00 0.00 85 1007.0
20260506121526 14 152 12.9 29.0 0.00 0.00 0.00 85 1006.9
20260506121116 14 189 12.9 29.0 0.00 0.00 0.00 85 1006.8
20260506120529 14 224 14.5 29.0 0.00 0.00 0.00 85 1006.9
20260506120115 14 206 11.3 33.8 0.00 0.00 0.00 84 1006.7
20260506115602 14 157 12.9 33.8 0.00 0.00 0.00 84 1006.7
20260506115112 14 209 12.9 30.6 0.00 0.00 0.00 84 1006.9
20260506114554 14 189 11.3 30.6 0.00 0.00 0.00 84 1006.6
20260506114102 14 220 11.3 25.7 0.00 0.00 0.00 84 1006.6
20260506113611 13 203 6.4 25.7 0.00 0.00 0.00 84 1006.7
20260506113136 13 196 11.3 24.1 0.00 0.00 0.00 84 1006.6
20260506112549 13 147 9.7 24.1 0.00 0.00 0.00 84 1006.7
20260506112045 13 193 11.3 25.7 0.00 0.00 0.00 84 1006.8
20260506111541 13 162 11.3 24.1 0.00 0.00 0.00 84 1006.6
20260506111110 13 224 4.8 20.9 0.00 0.00 0.00 84 1006.9
20260506110546 13 164 11.3 20.9 0.00 0.00 0.00 84 1006.7
20260506105627 13 166 8.0 16.1 0.00 0.00 0.00 84 1006.8
20260506105042 13 158 8.0 24.1 0.00 0.00 0.00 83 1006.9
20260506104538 13 204 12.9 25.7 0.00 0.00 0.00 83 1006.9
20260506104035 13 195 6.4 20.9 0.00 0.00 0.00 83 1006.9
20260506103531 13 177 11.3 29.0 0.00 0.00 0.00 83 1006.9
20260506103124 13 198 11.3 29.0 0.00 0.00 0.00 83 1006.8
20260506102535 13 216 12.9 27.4 0.00 0.00 0.00 82 1006.7
20260506102030 13 124 6.4 19.3 0.00 0.00 0.00 82 1006.6
20260506101527 13 179 6.4 17.7 0.00 0.00 0.00 82 1006.9
20260506101025 13 166 8.0 22.5 0.00 0.00 0.00 81 1006.7
20260506100631 13 203 8.0 22.5 0.00 0.00 0.00 81 1006.7
20260506100046 13 195 8.0 20.9 0.00 0.00 0.00 80 1006.4
20260506095541 13 174 8.0 19.3 0.00 0.00 0.00 80 1006.5
20260506095130 13 162 9.7 19.3 0.00 0.00 0.00 79 1006.5
20260506094542 13 171 4.8 17.7 0.00 0.00 0.00 79 1006.6
20260506094112 13 168 6.4 17.7 0.00 0.00 0.00 78 1006.4
20260506093546 14 169 8.0 16.1 0.00 0.00 0.00 77 1006.5
20260506093113 14 173 4.8 14.5 0.00 0.00 0.00 77 1006.4
20260506092619 14 213 8.0 12.9 0.00 0.00 0.00 76 1006.5
20260506092107 14 211 6.4 14.5 0.00 0.00 0.00 76 1006.5
20260506091550 14 160 6.4 14.5 0.00 0.00 0.00 76 1006.5
20260506091047 14 147 6.4 16.1 0.00 0.00 0.00 75 1006.6
20260506090550 14 197 4.8 19.3 0.00 0.00 0.00 75 1006.7
20260506090048 15 204 6.4 19.3 0.00 0.00 0.00 74 1006.6
20260506085539 15 206 6.4 17.7 0.00 0.00 0.00 74 1006.7
20260506085034 15 211 6.4 17.7 0.00 0.00 0.00 73 1006.6
20260506084602 15 165 8.0 14.5 0.00 0.00 0.00 72 1006.7
20260506084114 15 189 4.8 17.7 0.00 0.00 0.00 72 1006.8
20260506083557 15 214 8.0 17.7 0.00 0.00 0.00 71 1006.7
20260506083155 15 180 6.4 16.1 0.00 0.00 0.00 71 1006.7
20260506082545 15 226 8.0 11.3 0.00 0.00 0.00 70 1006.9
20260506082045 15 174 6.4 17.7 0.00 0.00 0.00 70 1006.9
20260506081635 15 194 8.0 17.7 0.00 0.00 0.00 70 1006.8
20260506081102 15 193 8.0 19.3 0.00 0.00 0.00 70 1006.8
20260506080536 15 203 11.3 19.3 0.00 0.00 0.00 70 1006.8
20260506080127 15 229 4.8 16.1 0.00 0.00 0.00 70 1006.8
20260506073131 15 233 9.7 17.7 0.00 0.00 0.00 71 1006.9
20260506072542 15 288 6.4 17.7 0.00 0.00 0.00 70 1006.9
20260506072107 15 191 8.0 17.7 0.00 0.00 0.00 71 1007.0
20260506071541 15 226 6.4 16.1 0.00 0.00 0.00 71 1007.1
20260506071129 15 219 8.0 16.1 0.00 0.00 0.00 70 1007.1
20260506070542 15 237 9.7 14.5 0.00 0.00 0.00 70 1007.2
20260506062033 16 195 8.0 16.1 0.00 0.00 0.00 67 1007.1
20260506061603 16 231 8.0 16.1 0.00 0.00 0.00 67 1007.2
20260506061131 16 166 8.0 16.1 0.00 0.00 0.00 66 1007.2
20260506060549 16 197 9.7 16.1 0.00 0.00 0.00 66 1007.1
20260506051050 17 235 9.7 24.1 0.00 0.00 0.00 60 1007.4
20260506050558 17 204 9.7 24.1 0.00 0.00 0.00 60 1007.4
20260506045053 17 202 11.3 22.5 0.00 0.00 0.00 60 1007.3
20260506044556 17 141 6.4 17.7 0.00 0.00 0.00 60 1007.3
20260506044125 17 189 8.0 17.7 0.00 0.00 0.00 59 1007.5
20260506043539 17 168 9.7 22.5 0.00 0.00 0.00 59 1007.4
20260506043127 17 200 8.0 22.5 0.00 0.00 0.00 59 1007.5
20260506042539 17 207 6.4 19.3 0.00 0.00 0.00 58 1007.4
20260506042130 17 206 8.0 19.3 0.00 0.00 0.00 58 1007.3
20260506041544 17 212 8.0 19.3 0.00 0.00 0.00 58 1007.3
20260506041040 17 179 8.0 24.1 0.00 0.00 0.00 58 1007.3
20260506040610 17 205 4.8 24.1 0.00 0.00 0.00 58 1007.3
20260506040048 17 150 9.7 24.1 0.00 0.00 0.00 57 1007.3
20260506035542 17 215 9.7 16.1 0.00 0.00 0.00 57 1007.3
20260506035036 17 144 9.7 25.7 0.00 0.00 0.00 57 1007.3
20260506034624 17 209 8.0 25.7 0.00 0.00 0.00 57 1007.4
20260506034109 17 152 8.0 19.3 0.00 0.00 0.00 58 1007.3
20260506033552 17 218 9.7 19.3 0.00 0.00 0.00 57 1007.4
20260506033050 17 152 6.4 16.1 0.00 0.00 0.00 57 1007.4
20260506032617 17 177 6.4 19.3 0.00 0.00 0.00 57 1007.3
20260506032031 17 159 9.7 19.3 0.00 0.00 0.00 57 1007.3
20260506031527 17 165 8.0 20.9 0.00 0.00 0.00 58 1007.4
20260506031114 17 172 8.0 24.1 0.00 0.00 0.00 59 1007.3
20260506030556 17 143 8.0 17.7 0.00 0.00 0.00 59 1007.4
20260506030041 17 162 6.4 11.3 0.00 0.00 0.00 60 1007.4
20260506025533 17 144 4.8 14.5 0.00 0.00 0.00 60 1007.3
20260506025104 17 135 6.4 16.1 0.00 0.00 0.00 60 1007.5
20260506024613 17 138 6.4 16.1 0.00 0.00 0.00 60 1007.5
20260506024046 17 156 8.0 14.5 0.00 0.00 0.00 60 1007.6
20260506023543 17 135 6.4 14.5 0.00 0.00 0.00 61 1007.6
20260506023147 17 150 8.0 12.9 0.00 0.00 0.00 61 1007.6
20260506022539 17 142 6.4 16.1 0.00 0.00 0.00 62 1007.6
20260506022035 17 139 9.7 16.1 0.00 0.00 0.00 62 1007.6
20260506021626 17 149 4.8 12.9 0.00 0.00 0.00 63 1007.7
20260506021132 17 152 6.4 14.5 0.00 0.00 0.00 64 1007.6
20260506020614 17 170 8.0 14.5 0.00 0.00 0.00 64 1007.6
20260506015630 17 158 4.8 12.9 0.00 0.00 0.00 66 1007.7
20260506015051 17 154 4.8 12.9 0.00 0.00 0.00 66 1007.7
20260506014525 17 158 3.2 9.7 0.00 0.00 0.00 67 1007.5
20260506014114 16 117 4.8 9.7 0.00 0.00 0.00 68 1007.6
20260506013618 16 147 3.2 9.7 0.00 0.00 0.00 68 1007.5
20260506013032 16 147 1.6 6.4 0.00 0.00 0.00 69 1007.5
20260506012555 16 127 1.6 4.8 0.00 0.00 0.00 69 1007.5
20260506012032 16 133 3.2 4.8 0.00 0.00 0.00 69 1007.5
20260506011641 16 131 1.6 3.2 0.00 0.00 0.00 69 1007.6
20260506011034 16 131 0.0 3.2 0.00 0.00 0.00 69 1007.4
20260506010531 16 131 1.6 3.2 0.00 0.00 0.00 68 1007.4
20260506010052 16 131 1.6 4.8 0.00 0.00 0.00 68 1007.4
20260506005554 17 129 1.6 6.4 0.00 0.00 0.00 68 1007.2
20260506005028 17 121 3.2 8.0 0.00 0.00 0.00 68 1007.2
20260506004552 16 120 4.8 6.4 0.00 0.00 0.00 69 1007.4
20260506004046 17 119 3.2 8.0 0.00 0.00 0.00 69 1007.2
20260506003541 17 299 1.6 3.2 0.00 0.00 0.00 69 1007.2
20260506003038 17 299 0.0 1.6 0.00 0.00 0.00 68 1007.1
20260506002605 17 299 0.0 1.6 0.00 0.00 0.00 68 1007.1
20260506002113 17 299 0.0 1.6 0.00 0.00 0.00 68 1007.1
20260506001544 17 299 0.0 1.6 0.00 0.00 0.00 68 1006.9
20260506001040 17 299 1.6 1.6 0.00 0.00 0.00 68 1006.9
20260506000611 17 299 0.0 0.0 0.00 0.00 0.00 68 1006.7
20260506000047 17 299 0.0 3.2 0.00 0.00 0.00 68 1006.7
20260505235546 17 299 0.0 4.8 0.00 0.00 0.00 68 1006.7
20260505235050 17 299 3.2 4.8 0.00 0.00 0.00 67 1006.8
20260505234547 17 312 3.2 8.0 0.00 0.00 0.00 67 1006.6
20260505234114 17 307 3.2 8.0 0.00 0.00 0.00 66 1006.5
20260505233545 17 286 3.2 14.5 0.00 0.00 0.00 64 1006.4
20260505233042 18 280 4.8 16.1 0.00 0.00 0.00 63 1006.3
20260505232611 18 308 4.8 17.7 0.00 0.00 0.00 62 1006.3
20260505232025 18 326 9.7 33.8 0.00 0.00 0.00 61 1006.2
20260505231550 18 288 8.0 33.8 0.00 0.00 0.00 59 1006.1
20260505231053 20 326 12.9 24.1 0.00 0.00 0.00 55 1006.0
20260505230556 21 237 12.9 24.1 0.00 0.00 0.00 48 1005.8
20260505230032 21 232 9.7 24.1 0.00 0.00 0.00 46 1005.5
20260505225551 21 147 17.7 24.1 0.00 0.00 0.00 46 1005.5
20260505225121 21 247 12.9 22.5 0.00 0.00 0.00 46 1005.3
20260505224536 21 178 12.9 27.4 0.00 0.00 0.00 45 1005.3
20260505224032 22 256 9.7 25.7 0.00 0.00 0.00 45 1005.1
20260505223620 22 218 12.9 24.1 0.00 0.00 0.00 44 1005.1
20260505223035 22 171 8.0 30.6 0.00 0.00 0.00 44 1005.1
20260505222530 22 216 16.1 30.6 0.00 0.00 0.00 43 1004.9